User: anonymous   Login
Location: Unspecified
(0.0000°N, 0.0000°E)
Time: 07:39:58
(UTC+00:00)
Language:

FIREBIRD 3 - Orbit

View from above orbital plane
View from above orbital plane
View from above satellite
View from above satellite

Ground track
Ground track

The orbit data is extracted from the following two-line orbital elements,

1 40377U 15003B   17289.81403526 +.00003006 +00000-0 +12910-3 0  9991
2 40377 099.1154 138.0730 0133740 319.5939 039.5412 15.16063108149426
Epoch (UTC): 16 October 2017 19:32:12
Eccentricity: 0.0133740
inclination: 99.1154°
perigee height: 425 km
apogee height: 610 km
right ascension of ascending node: 138.0730°
argument of perigee: 319.5939°
revolutions per day: 15.16063108
mean anomaly at epoch: 39.5412°
orbit number at epoch: 14942

The dashed part of the orbit path shows where the satellite is in the earth's shadow,  

DLR